Shannon, Ireland

4:37 PM IST on May 21, 2018 (GMT +0100)
Shannon

Weather History for EINN - June, 2012

Change the Weather History Date:

Friday, June 15, 2012

  Actual Average Record
Temperature  
Mean Temperature 56 °F -  
Max Temperature 61 °F 66 °F 71 °F (2003)
Min Temperature 52 °F 52 °F 44 °F (1998)
Degree Days  
Heating Degree Days 8    
Growing Degree Days 6 (Base 50)    
Moisture  
Dew Point 54 °F    
Average Humidity 89    
Maximum Humidity 100    
Minimum Humidity 77    
Precipitation  
Precipitation 0.12 in 0.08 in - ()
Sea Level Pressure  
Sea Level Pressure 29.23 in    
Wind  
Wind Speed 17 mph ()    
Max Wind Speed 26 mph    
Max Gust Speed 33 mph    
Visibility 6.4 miles    
Events Rain    
Averages and records for this station are not official NWS values.
T = Trace of Precipitation, MM = Missing Value Source: Averaged Metar Reports

Daily Weather History Graph

Daily Weather History Graph

Search for Another Location

Airport or City:

Astronomy

Jun. 15, 2012 Rise Set
Actual Time 5:10 AM IST 10:01 PM IST
Civil Twilight 4:20 AM IST 10:52 PM IST
Nautical Twilight 2:56 AM IST 12:16 AM IST
Astronomical Twilight Sun does not set Sun does not set
Moon 2:40 AM IST (6/15) 6:11 PM IST (6/15)
Length of Visible Light 18h 31m
Length of Day
16h 50m
Waning Crescent, 15% of the Moon is Illuminated
Jun 15
Waning Crescent
Jun 19
New
Jun 27
First Quarter
Jul 3
Full
Jul 11
Last Quarter

Hourly Weather History & Observations

Time (IST) Temp. Dew Point Humidity Pressure Visibility Wind Dir Wind Speed Gust Speed Precip Events Conditions
12:00 AM 53.6 °F 50.0 °F 88% 29.39 in 6.2 mi ENE 18.4 mph - N/A   Mostly Cloudy
12:30 AM 55.4 °F 50.0 °F 82% 29.36 in 6.2 mi East 20.7 mph 33.4 mph N/A   Mostly Cloudy
1:00 AM 55 °F 50 °F 79% 29.35 in 9 mi East 17.9 mph - - Rain Light Drizzle
1:00 AM 55.4 °F 50.0 °F 82% 29.33 in 6.2 mi East 18.4 mph - N/A   Mostly Cloudy
1:30 AM 55.4 °F 51.8 °F 88% 29.33 in 6.2 mi East 20.7 mph - N/A   Light Drizzle
2:00 AM 55.4 °F 51.8 °F 88% 29.30 in 6.2 mi East 20.7 mph 32.2 mph N/A   Light Drizzle
2:30 AM 55.4 °F 51.8 °F 88% 29.30 in 5.6 mi East 20.7 mph - N/A Rain Light Rain
3:00 AM 55.4 °F 51.8 °F 88% 29.27 in 6.2 mi East 23.0 mph - N/A Rain Light Rain
3:30 AM 55.4 °F 51.8 °F 88% 29.27 in 6.2 mi East 20.7 mph - N/A Rain Light Rain
4:00 AM 53.6 °F 51.8 °F 94% 29.24 in 6.2 mi East 20.7 mph - N/A Rain Light Rain
4:30 AM 53.6 °F 51.8 °F 94% 29.24 in 6.2 mi East 20.7 mph - N/A Rain Light Rain
5:00 AM 53.6 °F 51.8 °F 94% 29.24 in 6.2 mi East 19.6 mph 31.1 mph N/A Rain Light Rain
5:30 AM 53.6 °F 51.8 °F 94% 29.21 in 6.2 mi East 19.6 mph - N/A Rain Light Rain
6:00 AM 53.6 °F 53.6 °F 100% 29.21 in 5.6 mi East 18.4 mph - N/A Rain Light Rain
6:30 AM 55.4 °F 53.6 °F 94% 29.21 in 6.2 mi East 16.1 mph - N/A Rain Light Rain
7:00 AM 54 °F 53 °F 96% 29.24 in 12 mi East 15.7 mph - - Rain Light Rain
7:00 AM 55.4 °F 53.6 °F 94% 29.21 in 6.2 mi East 16.1 mph - N/A   Mostly Cloudy
7:30 AM 55.4 °F 53.6 °F 94% 29.21 in 6.2 mi East 16.1 mph - N/A   Mostly Cloudy
8:00 AM 55.4 °F 53.6 °F 94% 29.21 in 6.2 mi East 13.8 mph - N/A   Mostly Cloudy
8:30 AM 55.4 °F 53.6 °F 94% 29.21 in 6.2 mi East 13.8 mph - N/A Rain Light Rain
9:00 AM 57.2 °F 55.4 °F 94% 29.21 in 6.2 mi East 15.0 mph - N/A   Mostly Cloudy
9:30 AM 59.0 °F 55.4 °F 88% 29.21 in 6.2 mi East 17.3 mph - N/A   Mostly Cloudy
10:00 AM 57.2 °F 53.6 °F 88% 29.21 in 6.2 mi East 16.1 mph - N/A   Light Drizzle
10:30 AM 59.0 °F 53.6 °F 82% 29.18 in 5.0 mi East 18.4 mph - N/A   Light Drizzle
11:00 AM 59.0 °F 53.6 °F 82% 29.18 in 6.2 mi East 20.7 mph - N/A   Light Drizzle
11:30 AM 57.2 °F 53.6 °F 88% 29.18 in 5.6 mi ESE 26.5 mph - N/A   Light Drizzle
12:00 PM 55.4 °F 53.6 °F 94% 29.18 in 2.5 mi ESE 23.0 mph - N/A   Light Drizzle
12:30 PM 59.0 °F 55.4 °F 88% 29.18 in 6.2 mi ESE 24.2 mph - N/A Rain Light Rain
1:00 PM 60 °F 55 °F 77% 29.20 in 11 mi ESE 20.1 mph - - Rain Light Rain
1:00 PM 59.0 °F 53.6 °F 82% 29.18 in 6.2 mi ESE 20.7 mph - N/A Rain Light Rain
1:30 PM 59.0 °F 53.6 °F 82% 29.18 in 6.2 mi ESE 24.2 mph - N/A   Mostly Cloudy
2:00 PM 59.0 °F 53.6 °F 82% 29.21 in 6.2 mi SE 24.2 mph - N/A Rain Light Rain
2:30 PM 59.0 °F 53.6 °F 82% 29.18 in 6.2 mi SE 24.2 mph - N/A   Mostly Cloudy
3:00 PM 59.0 °F 53.6 °F 82% 29.18 in 6.2 mi SE 23.0 mph - N/A   Mostly Cloudy
3:30 PM 59.0 °F 53.6 °F 82% 29.18 in 6.2 mi ESE 24.2 mph - N/A   Mostly Cloudy
4:00 PM 60.8 °F 53.6 °F 77% 29.21 in 6.2 mi ESE 18.4 mph - N/A   Mostly Cloudy
4:30 PM 59.0 °F 55.4 °F 88% 29.21 in 5.0 mi ESE 18.4 mph - N/A Rain Light Rain Showers
5:00 PM 60.8 °F 59.0 °F 94% 29.21 in 6.2 mi SE 15.0 mph - N/A   Scattered Clouds
5:30 PM 57.2 °F 55.4 °F 94% 29.21 in 4.3 mi SSE 16.1 mph - N/A Rain Light Rain Showers
6:00 PM 59.0 °F 55.4 °F 88% 29.21 in 6.2 mi SE 6.9 mph - N/A   Mostly Cloudy
6:30 PM 59.0 °F 55.4 °F 88% 29.21 in 6.2 mi SE 11.5 mph - N/A   Mostly Cloudy
7:00 PM 59 °F 55 °F 82% 29.23 in 16 mi SSE 13.4 mph - - Rain Light Rain Showers
7:00 PM 59.0 °F 55.4 °F 88% 29.21 in 6.2 mi SSE 13.8 mph - N/A   Mostly Cloudy
7:30 PM 59.0 °F 55.4 °F 88% 29.24 in 6.2 mi SE 12.7 mph - N/A   Mostly Cloudy
8:00 PM 57.2 °F 55.4 °F 94% 29.24 in 4.3 mi SSE 11.5 mph - N/A Rain Light Rain Showers
8:30 PM 57.2 °F 55.4 °F 94% 29.24 in 6.2 mi SSE 10.4 mph - N/A Rain Light Rain Showers
9:00 PM 55.4 °F 55.4 °F 100% 29.24 in 6.2 mi SSE 11.5 mph - N/A Rain Light Rain Showers
9:30 PM 55.4 °F 55.4 °F 100% 29.27 in 6.2 mi SE 10.4 mph - N/A Rain Light Rain Showers
10:00 PM 55.4 °F 53.6 °F 94% 29.27 in 6.2 mi SE 11.5 mph - N/A Rain Light Rain Showers
10:30 PM 55.4 °F 53.6 °F 94% 29.27 in 3.7 mi ESE 10.4 mph - N/A Rain Light Rain Showers
11:00 PM 55.4 °F 55.4 °F 100% 29.27 in 6.2 mi East 8.1 mph - N/A Rain Light Rain Showers
11:30 PM 55.4 °F 53.6 °F 94% 29.27 in 6.2 mi East 6.9 mph - N/A   Mostly Cloudy